Station MTBF1 - 8726412 - Middle Tampa Bay, FL Image indicating link to RSS feed of recent meteorological observations for station MTBF1


Conditions at MTBF1 as of
(2:00 pm EDT)
1800 GMT on 05/22/2024:
     

Click on the graph icon in the table below to see a time series plot of the last five days of that observation.

5-day plot - Wind Direction Wind Direction (WDIR):NNW ( 340 deg true )
5-day plot - Wind Speed Wind Speed (WSPD): 8.0 kts
5-day plot - Wind Gust Wind Gust (GST): 8.0 kts
5-day plot - Visibility Visibility (VIS): 5.9 nmi
5-day plot - Wind Speed at 10 Meters Wind Speed at 10 meters (WSPD10M): 7.8 kts
5-day plot - Wind Speed at 20 Meters Wind Speed at 20 meters (WSPD20M): 9.7 kts
5-day plot -  Wind Speed, Wind Gust and Atmospheric Pressure Combined plot of Wind Speed, Gust, and Air Pressure
NOS Water Level Observation Network Water Level
Previous observations
TIME
(EDT)
5-day plot - Wind Direction
WDIR
 
5-day plot - Wind Speed
WSPD
kts
5-day plot - Wind Gust
GST
kts
5-day plot - Wave Height
WVHT
ft
5-day plot - Dominant Wave Period
DPD
sec
5-day plot - Average Wave Period
APD
sec
5-day plot - Mean Wave Direction
MWD
 
5-day plot - Atmospheric Pressure
PRES
in
5-day plot - Pressure Tendency
PTDY
in
5-day plot - Air Temperature
ATMP
°F
5-day plot - Water Temperature
WTMP
°F
5-day plot - Dew Point
DEWP
°F
5-day plot - Salinity
SAL
psu
5-day plot - Visibility
VIS
nmi
5-day plot - Tide (above MLLW)
TIDE
ft
2024-05-22 01:54 pmNNW 7.0 8.9---------- 5.9-
2024-05-22 01:48 pm N 8.0 8.9---------- 5.9-
2024-05-22 01:42 pmNNW 8.0 9.9---------- 5.9-
2024-05-22 01:36 pmNNW 8.9 9.9---------- 5.9-
2024-05-22 01:30 pm N 8.9 9.9----29.99----- 5.9-
2024-05-22 01:24 pm N 8.0 8.9----29.99----- 5.9-
2024-05-22 01:18 pm N 8.0 8.9---------- 5.9-
2024-05-22 01:12 pm N 8.0 8.9---------- 5.9-
2024-05-22 01:06 pm N 8.9 9.9---------- 5.9-
2024-05-22 01:00 pm N 7.0 8.9----30.00+0.00---- 5.9-
2024-05-22 12:54 pm N 8.9 8.9----30.00----- 5.9-
2024-05-22 12:48 pm N 6.0 8.0---------- 5.9-
2024-05-22 12:42 pm N 7.0 8.0---------- 5.9-
2024-05-22 12:36 pmNNE 6.0 7.0---------- 5.9-
2024-05-22 12:30 pmNNE 4.1 5.1---------- 5.9-
2024-05-22 12:24 pm E 1.9 4.1---------- 5.9-
2024-05-22 12:18 pmENE 2.9 7.0------ 84.7- 68.4- 5.9-
2024-05-22 12:12 pmESE 6.0 8.0------ 83.7- 68.4- 5.9-
2024-05-22 12:06 pm E 2.9 6.0------ 83.7- 68.2- 5.9-
2024-05-22 12:00 pm E 6.0 8.9----29.99+0.00 85.3- 67.3- 5.9-
2024-05-22 11:54 amESE 5.1 7.0----29.99- 85.3- 67.8- 5.9-
2024-05-22 11:48 amESE 6.0 8.9----29.99- 84.0- 68.2- 5.9-
2024-05-22 11:42 amESE 7.0 9.9----29.99- 84.4- 68.2- 5.9-
2024-05-22 11:36 amESE 7.0 8.9----29.99- 84.9- 68.7- 5.9-
2024-05-22 11:30 am SE 8.9 12.0----30.00- 83.7- 68.5- 5.9-
2024-05-22 11:24 am SE 7.0 9.9----30.00- 83.7- 69.1- 5.9-
2024-05-22 11:18 am SE 7.0 9.9----30.00- 83.5- 69.6- 5.9-
2024-05-22 11:12 am SE 8.0 9.9----30.00- 83.3- 70.0- 5.9-
2024-05-22 11:06 amESE 8.0 9.9----30.00- 82.9- 70.3- 5.9-
2024-05-22 11:00 am SE 8.0 11.1----30.00+0.02 82.9- 70.5- 5.9-
2024-05-22 10:54 amESE 8.9 11.1----30.00- 82.2- 69.6- 5.9-
2024-05-22 10:48 am SE 9.9 12.0----30.01----- 5.9-
2024-05-22 10:42 amESE 8.0 13.0----30.01----- 5.9-
2024-05-22 10:36 am SE 9.9 12.0----30.01----- 5.9-
2024-05-22 10:30 am SE 8.0 8.9---------- 5.9-
2024-05-22 10:24 amESE 7.0 11.1---------- 5.9-
2024-05-22 10:18 amESE 8.9 12.0---------- 5.9-
2024-05-22 10:12 am E 9.9 12.0---------- 5.9-
2024-05-22 10:06 amESE 8.9 11.1---------- 5.9-
2024-05-22 10:00 amESE 9.9 12.0----30.01+0.06 80.2- 71.2- 5.9-
2024-05-22 09:54 amESE 8.9 9.9----30.01- 79.9- 71.4- 5.9-
2024-05-22 09:48 amESE 8.0 9.9----30.01----- 5.9-
2024-05-22 09:42 amESE 8.9 11.1----30.01----- 5.9-
2024-05-22 09:36 amESE 8.9 11.1----30.00----- 5.9-
2024-05-22 09:30 amESE 9.9 12.0---------- 5.9-
2024-05-22 09:24 amESE 9.9 12.0---------- 5.9-
2024-05-22 09:18 amESE 11.1 13.0----30.00----- 5.9-
2024-05-22 09:12 amESE 11.1 13.0----30.00----- 5.9-
2024-05-22 09:06 amESE 9.9 12.0----30.00----- 5.9-
2024-05-22 09:00 amESE 9.9 11.1----30.00+0.06 77.7- 72.1- 5.9-
2024-05-22 08:54 amESE 11.1 13.0----29.99- 77.2- 72.0- 5.9-
2024-05-22 08:48 am E 11.1 12.0----29.99- 77.2- 72.3- 5.9-
2024-05-22 08:42 amESE 8.9 12.0----29.99- 76.5- 71.8- 5.9-
2024-05-22 08:36 am E 11.1 12.0----29.99- 76.5- 72.1- 5.9-
2024-05-22 08:30 am E 11.1 12.0----29.99- 76.3- 72.1- 5.9-
2024-05-22 08:24 am E 12.0 14.0----29.98- 76.3- 72.3- 5.9-
2024-05-22 08:18 am E 11.1 13.0----29.98- 76.3- 72.3- 5.9-
2024-05-22 08:12 am E 11.1 14.0----29.98- 76.1- 72.3- 5.9-
2024-05-22 08:06 am E 8.9 12.0----29.98- 76.5- 72.7- 5.9-
2024-05-22 08:00 am E 8.9 11.1----29.98+0.04 76.1- 72.5- 5.9-
2024-05-22 07:54 am E 8.9 9.9----29.98- 75.7- 72.1- 5.9-
2024-05-22 07:48 am E 8.9 11.1----29.97- 75.7- 72.1- 5.9-
2024-05-22 07:42 am E 8.9 12.0----29.97- 75.9- 72.3- 5.9-
2024-05-22 07:36 am E 9.9 12.0----29.96- 75.7- 72.3- 5.9-
2024-05-22 07:30 am E 11.1 12.0----29.96- 75.7- 72.3- 5.9-
2024-05-22 07:24 am E 9.9 13.0----29.96- 75.4- 72.0- 5.9-
2024-05-22 07:18 am E 11.1 14.0----29.96- 75.4- 72.1- 5.9-
2024-05-22 07:12 am E 13.0 14.0----29.95- 75.7- 72.5- 5.9-
2024-05-22 07:06 am E 11.1 13.0----29.95- 75.6- 72.3- 5.9-
2024-05-22 07:00 am E 12.0 14.0----29.95+0.02 75.2- 71.8- 5.9-
2024-05-22 06:54 am E 12.0 14.0----29.95- 75.0- 71.6- 5.9-
2024-05-22 06:48 am E 13.0 14.0----29.94- 75.2- 71.8- 5.9-
2024-05-22 06:42 am E 13.0 15.0----29.93- 75.2- 71.6- 5.9-
2024-05-22 06:36 am E 13.0 15.0----29.93- 75.6- 72.0- 5.9-
2024-05-22 06:30 am E 13.0 15.9----29.93- 75.7- 72.1- 5.9-
2024-05-22 06:24 am E 12.0 15.0----29.93- 75.7- 72.0- 5.9-
2024-05-22 06:18 am E 12.0 14.0----29.93- 76.1- 72.3- 5.9-
2024-05-22 06:12 am E 12.0 15.0----29.93- 75.6- 71.8- 5.9-
2024-05-22 06:06 am E 14.0 15.0----29.93- 75.9- 72.1- 5.9-
2024-05-22 06:00 am E 12.0 13.0----29.93+0.00 76.1- 72.3- 5.9-
2024-05-22 05:54 am E 12.0 14.0----29.93- 75.7- 72.0- 5.9-
2024-05-22 05:48 am E 13.0 15.0----29.93- 76.1- 72.3- 5.9-
2024-05-22 05:42 am E 13.0 15.0----29.93- 75.9- 72.1- 5.9-
2024-05-22 05:36 am E 12.0 14.0----29.93- 76.3- 72.5- 5.9-
2024-05-22 05:30 am E 12.0 15.0----29.93- 76.1- 72.3- 5.9-
2024-05-22 05:24 am E 13.0 15.9----29.93- 75.9- 72.1- 5.9-
2024-05-22 05:18 am E 14.0 15.0----29.93- 76.1- 72.1- 5.9-
2024-05-22 05:12 am E 14.0 15.0----29.93- 76.3- 72.1- 5.9-
2024-05-22 05:06 am E 14.0 15.0----29.93- 76.5- 72.3- 5.9-
2024-05-22 05:00 am E 12.0 15.0----29.93+0.00 76.5- 72.3- 5.9-
2024-05-22 04:54 am E 12.0 15.9----29.93- 76.3- 72.1- 5.9-
2024-05-22 04:48 amENE 12.0 14.0----29.93- 76.3- 72.1- 5.9-
2024-05-22 04:42 am E 12.0 14.0----29.93- 76.1- 72.0- 5.9-
2024-05-22 04:36 amENE 12.0 14.0----29.93- 76.1- 72.0- 5.9-
2024-05-22 04:30 amENE 12.0 14.0----29.93- 76.3- 72.1- 5.9-
2024-05-22 04:24 am E 11.1 14.0----29.93- 76.3- 72.1- 5.9-
2024-05-22 04:18 am E 12.0 13.0----29.93- 76.3- 72.1- 5.9-
2024-05-22 04:12 am E 9.9 12.0----29.93- 76.3- 72.0- 5.9-
2024-05-22 04:06 am E 11.1 12.0----29.93- 76.3- 71.8- 5.9-
2024-05-22 04:00 am E 11.1 13.0----29.93-0.01 76.5- 71.8- 5.9-
2024-05-22 03:54 amENE 11.1 12.0----29.93- 76.5- 71.6- 5.9-
2024-05-22 03:48 am E 8.9 13.0----29.93- 76.5- 71.6- 5.9-
2024-05-22 03:42 amENE 11.1 12.0----29.93- 76.5- 71.4- 5.9-
2024-05-22 03:36 amENE 9.9 12.0----29.93- 76.3- 71.2- 5.9-
2024-05-22 03:30 am E 9.9 12.0----29.93- 76.3- 71.4- 5.9-
2024-05-22 03:24 am E 11.1 13.0----29.93- 76.5- 71.6- 5.9-
2024-05-22 03:18 am E 11.1 13.0----29.93- 76.8- 72.0- 5.9-
2024-05-22 03:12 am E 8.9 12.0----29.93- 76.3- 71.2- 5.9-
2024-05-22 03:06 am E 11.1 13.0----29.93- 76.3- 71.2- 5.9-
2024-05-22 03:00 am E 11.1 13.0----29.93-0.01 76.3- 71.1- 5.9-
2024-05-22 02:54 am E 9.9 12.0----29.93- 76.5- 71.2- 5.9-
2024-05-22 02:48 am E 9.9 12.0----29.93- 76.3--- 5.9-
2024-05-22 02:42 am E 9.9 12.0----29.92- 76.5--- 5.9-
2024-05-22 02:36 am E 9.9 12.0----29.92- 76.6--- 5.9-
2024-05-22 02:30 am E 9.9 12.0----29.92- 76.8--- 5.9-
2024-05-22 02:24 am E 9.9 13.0----29.92- 76.8--- 5.9-
2024-05-22 02:18 am E 11.1 12.0----29.92- 76.6- 70.9- 5.9-
2024-05-22 02:12 am E 12.0 13.0----29.93- 77.0- 71.1- 5.9-
2024-05-22 02:06 amESE 9.9 13.0----29.93- 76.8- 70.9- 5.9-
2024-05-22 02:00 amESE 12.0 14.0----29.93-0.01 77.2- 71.2- 5.9-
2024-05-22 01:54 am E 9.9 12.0----29.93- 77.5- 71.2- 5.9-
2024-05-22 01:48 amESE 11.1 13.0----29.93- 77.4- 70.9- 5.9-
2024-05-22 01:42 am E 11.1 13.0----29.93- 77.4- 70.5- 5.9-
2024-05-22 01:36 am E 12.0 15.0----29.93- 77.7- 70.9- 5.9-
2024-05-22 01:30 am E 11.1 14.0----29.93- 77.7- 70.5- 5.9-
2024-05-22 01:24 am E 12.0 14.0----29.93- 78.1- 70.5- 5.9-
2024-05-22 01:18 am E 12.0 13.0----29.93- 78.4- 70.5- 5.9-
2024-05-22 01:12 am E 11.1 15.0----29.93- 78.6- 70.2- 5.9-
2024-05-22 01:06 amESE 13.0 15.0----29.93- 78.6- 70.0- 5.9-
2024-05-22 01:00 am E 12.0 14.0----29.94+0.01 78.8- 69.8- 5.9-
2024-05-22 12:54 am E 11.1 13.0----29.94- 78.8- 69.6- 5.9-
2024-05-22 12:48 am E 9.9 12.0----29.94- 78.8- 69.3- 5.9-
2024-05-22 12:42 am E 11.1 12.0----29.94- 79.3- 69.8- 5.9-
2024-05-22 12:36 amESE 9.9 14.0----29.94- 79.3- 69.6- 5.9-
2024-05-22 12:30 amESE 9.9 12.0----29.94- 79.5- 69.8- 5.9-
2024-05-22 12:24 am E 11.1 12.0----29.94- 79.2- 69.3- 5.9-
2024-05-22 12:18 am E 9.9 12.0----29.94- 79.3- 69.3- 5.9-
2024-05-22 12:12 amESE 8.9 12.0----29.94- 79.7- 69.6- 5.9-
2024-05-22 12:06 amESE 9.9 12.0----29.93- 79.7- 69.3- 5.9-
2024-05-22 12:00 am E 11.1 13.0----29.93+0.03 79.9- 69.6- 5.9-
2024-05-21 11:54 pm E 12.0 13.0----29.93- 80.1- 69.6- 5.9-
2024-05-21 11:48 pm E 12.0 14.0----29.94- 79.9- 69.1- 5.9-
2024-05-21 11:42 pm E 11.1 13.0----29.94- 80.1- 68.9- 5.9-
2024-05-21 11:36 pm E 8.9 11.1----29.94- 80.2- 68.7- 5.9-
2024-05-21 11:30 pm E 8.0 9.9----29.94- 79.9- 68.5- 5.9-
2024-05-21 11:24 pm E 8.0 11.1----29.95- 80.1- 69.1- 5.9-
2024-05-21 11:18 pm NE 11.1 12.0----29.95- 80.2- 69.1- 5.9-
2024-05-21 11:12 pmENE 9.9 14.0----29.95- 80.1- 68.7- 5.9-
2024-05-21 11:06 pm NE 12.0 15.0----29.94- 80.1- 69.1- 5.9-
2024-05-21 11:00 pm NE 12.0 14.0----29.94+0.05 80.4- 69.4- 5.9-
2024-05-21 10:54 pm NE 12.0 14.0----29.94- 80.1- 69.1- 5.9-
2024-05-21 10:48 pmNNE 13.0 15.0----29.94- 80.1- 69.3- 5.9-
2024-05-21 10:42 pmNNE 13.0 15.0----29.94- 80.2- 69.3- 5.9-
2024-05-21 10:36 pmNNE 11.1 14.0----29.94- 80.1- 68.9- 5.9-
2024-05-21 10:30 pm N 12.0 15.0----29.94- 80.1- 68.5- 5.9-
2024-05-21 10:24 pm N 12.0 15.9----29.94- 80.2- 68.7- 5.9-
2024-05-21 10:18 pm N 11.1 14.0----29.93- 80.1- 68.0- 5.9-
2024-05-21 10:12 pm N 11.1 15.0----29.93- 80.1- 67.6- 5.9-
2024-05-21 10:06 pmNNE 12.0 13.0----29.93- 79.9- 66.9- 5.9-
2024-05-21 10:00 pm N 12.0 13.0----29.93+0.03 79.9- 66.7- 5.9-
2024-05-21 09:54 pm N 11.1 13.0----29.93- 80.1- 66.7- 5.9-
2024-05-21 09:48 pm N 8.9 13.0----29.92- 80.1- 66.6- 5.9-
2024-05-21 09:42 pm N 9.9 12.0----29.92- 79.9- 65.5- 5.9-
2024-05-21 09:36 pmNNW 11.1 14.0----29.91- 80.1- 65.3- 5.9-
2024-05-21 09:30 pmNNW 12.0 14.0----29.91- 80.2- 65.5- 5.9-
2024-05-21 09:24 pmNNW 12.0 14.0----29.91- 80.2- 65.3- 5.9-
2024-05-21 09:18 pmNNW 12.0 13.0----29.91- 80.2- 65.7- 5.9-
2024-05-21 09:12 pmNNW 11.1 14.0----29.91- 80.2- 65.1- 5.9-
2024-05-21 09:06 pmNNW 11.1 14.0----29.90- 80.6- 65.1- 5.9-
2024-05-21 09:00 pmNNW 11.1 13.0----29.91+0.01 80.6- 64.6- 5.9-
2024-05-21 08:54 pmNNW 11.1 14.0----29.91- 80.8- 64.6- 5.9-
2024-05-21 08:48 pmNNW 11.1 14.0----29.91- 81.0- 64.8- 5.9-
2024-05-21 08:42 pmNNW 9.9 13.0----29.91- 81.0- 63.7- 5.9-
2024-05-21 08:36 pmNNW 11.1 12.0----29.90- 81.1- 64.2- 5.9-
2024-05-21 08:30 pmNNW 11.1 13.0----29.90- 81.3- 64.0- 5.9-
2024-05-21 08:24 pmNNW 11.1 13.0----29.90- 81.3- 63.3- 5.9-
2024-05-21 08:18 pmNNW 12.0 14.0----29.90- 81.5- 64.0- 5.9-
2024-05-21 08:12 pmNNW 12.0 14.0----29.89- 81.7- 64.0- 5.9-
2024-05-21 08:06 pmNNW 12.0 14.0----29.90- 81.7- 63.5- 5.9-
2024-05-21 08:00 pmNNW 12.0 14.0----29.90+0.01 81.9- 64.0- 5.9-
2024-05-21 07:54 pmNNW 12.0 14.0----29.90- 82.2- 64.8- 5.9-
2024-05-21 07:48 pmNNW 12.0 15.0----29.90- 82.2- 63.9- 5.9-
2024-05-21 07:42 pmNNW 13.0 15.0----29.90- 82.4- 64.4- 5.9-
2024-05-21 07:36 pmNNW 12.0 15.0----29.90- 82.6- 64.8- 5.9-
2024-05-21 07:30 pmNNW 13.0 15.0----29.90- 82.8- 64.4- 5.9-
2024-05-21 07:24 pmNNW 12.0 14.0----29.90- 82.8- 64.0- 5.9-
2024-05-21 07:18 pmNNW 12.0 14.0----29.90- 83.1- 64.4- 5.9-
2024-05-21 07:12 pmNNW 12.0 15.0----29.89- 83.3- 64.4- 5.9-
2024-05-21 07:06 pmNNW 13.0 15.9----29.89- 83.5- 64.2- 5.9-
2024-05-21 07:00 pmNNW 14.0 15.0----29.89+0.00 83.5- 63.9- 5.9-
2024-05-21 06:54 pmNNW 14.0 15.0----29.89- 83.7- 63.9- 5.9-
2024-05-21 06:48 pmNNW 13.0 15.0----29.89- 83.7- 64.2- 5.9-
2024-05-21 06:42 pmNNW 14.0 15.0----29.90- 83.5- 64.4- 5.9-
2024-05-21 06:36 pmNNW 14.0 15.0----29.90- 83.8- 65.3- 5.9-
2024-05-21 06:30 pmNNW 13.0 15.0----29.90- 83.7- 64.8- 5.9-
2024-05-21 06:24 pmNNW 12.0 14.0----29.89- 83.7- 65.3- 5.9-
2024-05-21 06:18 pmNNW 13.0 15.0----29.89- 83.8- 66.6- 5.9-
2024-05-21 06:12 pmNNW 12.0 14.0----29.89- 82.8- 68.2- 5.9-
2024-05-21 06:06 pm NW 12.0 15.0----29.89- 82.6- 69.1- 5.9-
2024-05-21 06:00 pm NW 14.0 17.1----29.89-0.03 82.0- 67.8- 5.9-
2024-05-21 05:54 pm NW 15.9 18.1----29.89- 82.0- 68.5- 5.9-
2024-05-21 05:48 pm NW 15.9 20.0----29.89- 81.9- 68.2- 5.9-
2024-05-21 05:42 pm NW 15.9 19.0----29.88- 81.9- 68.9- 5.9-
2024-05-21 05:36 pm NW 15.0 20.0----29.88- 81.5- 68.7- 5.9-
2024-05-21 05:30 pm NW 15.9 19.0----29.88----- 5.9-
2024-05-21 05:24 pm NW 15.0 19.0----29.88----- 5.9-
2024-05-21 05:18 pm NW 17.1 19.0----29.88----- 5.9-
2024-05-21 05:12 pm NW 18.1 19.0----29.88----- 5.9-
2024-05-21 05:06 pm NW 17.1 20.0----29.89----- 5.9-
2024-05-21 05:00 pmWNW 15.9 20.0----29.89-0.04 80.8- 68.2- 5.9-
2024-05-21 04:54 pm NW 18.1 20.0----29.89- 81.0- 67.8- 5.9-
2024-05-21 04:48 pmWNW 17.1 19.0----29.89----- 5.9-
2024-05-21 04:42 pmWNW 15.9 18.1----29.89----- 5.9-
2024-05-21 04:36 pmWNW 17.1 19.0----29.89----- 5.9-
2024-05-21 04:30 pmWNW 17.1 18.1----29.89----- 5.9-
2024-05-21 04:24 pmWNW 17.1 18.1----29.89----- 5.9-
2024-05-21 04:18 pmWNW 15.9 18.1----29.90----- 5.9-
2024-05-21 04:12 pmWNW 15.9 18.1----29.90----- 5.9-
2024-05-21 04:06 pmWNW 15.9 18.1----29.90----- 5.9-
2024-05-21 04:00 pmWNW 13.0 15.0----29.90-0.04 80.2- 66.7- 5.9-
2024-05-21 03:54 pmWNW 15.0 17.1----29.90- 80.2- 67.3- 5.9-
2024-05-21 03:48 pmWNW 14.0 17.1----29.90----- 5.9-
2024-05-21 03:42 pmWNW 15.0 17.1----29.90----- 5.9-
2024-05-21 03:36 pmWNW 13.0 15.9----29.90----- 5.9-
2024-05-21 03:30 pmWNW 14.0 15.9---------- 5.9-
2024-05-21 03:24 pmWNW 13.0 15.9---------- 5.9-
2024-05-21 03:18 pm NW 13.0 15.9----29.91- 80.6- 64.8- 5.9-
2024-05-21 03:12 pmWNW 13.0 14.0----29.91- 80.4- 64.0- 5.9-
2024-05-21 03:06 pm NW 13.0 15.0----29.91- 80.4- 64.6- 5.9-
2024-05-21 03:00 pm NW 13.0 15.0----29.92-0.03 80.8- 64.8- 5.9-
2024-05-21 02:54 pmWNW 12.0 13.0----29.92- 80.8- 62.8- 5.9-
2024-05-21 02:48 pm NW 9.9 12.0----29.92- 81.0- 62.2- 5.9-
2024-05-21 02:42 pm NW 8.9 12.0----29.92- 81.3- 61.7- 5.9-
2024-05-21 02:36 pm NW 8.0 9.9----29.92- 81.3- 61.2- 5.9-
2024-05-21 02:30 pm NW 5.1 7.0----29.92- 81.1- 60.3- 5.9-
2024-05-21 02:24 pmWNW 5.1 6.0----29.92- 81.5- 60.1- 5.9-
2024-05-21 02:18 pm NW 2.9 4.1----29.92- 81.7- 59.7- 5.9-
2024-05-21 02:12 pmWNW 1.0 2.9----29.92- 81.3- 60.4- 5.9-
2024-05-21 02:06 pmWNW 1.9 4.1----29.93- 80.6- 59.9- 5.9-
2024-05-21 02:00 pm NW 5.1 6.0----29.93-0.02 81.0- 59.7- 5.9-
2024-05-21 01:54 pm W 4.1 5.1----29.93- 80.4- 60.3- 5.9-